Date String (YYYY-MM-DD hh:mm:ss) UTC,Instrument flags,Ambient pressure (hPa),Sample flow (lpm),Bypass flow (lpm),Sample temperature (°C),Ambient temperature (°C),ASC tube jacket temperature (°C),LED temperature (°C),Box temperature (°C),Sample RH (%),Span deviation,Mass concentration (μg/m³),Mass concentration (μg/m³),Mass concentration (μg/m³)
DateTimeUTC,F1_M11,P_M11,Q1_M11,Q2_M11,T1_M11,T2_M11,T3_M11,T4_M11,T5_M11,U1_M11,ZSPAN_M11,X0_M11,X2_M11,X1_M11
2023-05-14 09:00:00,,0840.1,4.99,0.00,29.0,27.3,00.0,37.5,30.6,26.6,0000.0,0000.84,0000.61,0000.52
2023-05-14 09:01:00,,0840.1,5.00,0.00,29.0,27.3,00.0,37.5,30.6,26.6,0000.0,0000.79,0000.60,0000.52
2023-05-14 09:02:00,,0840.1,5.00,0.00,29.0,27.2,00.0,37.5,30.5,26.6,0000.0,0000.77,0000.59,0000.51
2023-05-14 09:03:00,,0840.0,5.00,0.00,29.0,27.2,00.0,37.5,30.5,26.7,0000.0,0000.77,0000.60,0000.52
2023-05-14 09:04:00,,0840.1,5.00,0.00,29.0,27.2,00.0,37.4,30.5,26.7,0000.0,0000.76,0000.59,0000.52
2023-05-14 09:05:00,,0840.0,5.01,0.00,29.0,27.2,00.0,37.4,30.6,26.6,0000.0,0000.77,0000.59,0000.51
2023-05-14 09:06:00,,0840.0,4.98,0.00,29.0,27.3,00.0,37.4,30.5,26.6,0000.0,0000.76,0000.58,0000.51
2023-05-14 09:07:00,,0840.0,5.00,0.00,29.0,27.3,00.0,37.4,30.5,26.6,0000.0,0000.70,0000.56,0000.50
2023-05-14 09:08:00,,0840.0,5.01,0.00,29.0,27.3,00.0,37.4,30.5,26.6,0000.0,0000.72,0000.56,0000.50
2023-05-14 09:09:00,,0840.1,5.01,0.00,29.0,27.3,00.0,37.4,30.5,26.7,0000.0,0000.69,0000.55,0000.49
2023-05-14 09:10:00,,0840.1,5.01,0.00,29.0,27.3,00.0,37.4,30.5,26.6,0000.0,0000.66,0000.54,0000.49
2023-05-14 09:11:00,,0840.1,4.99,0.00,29.0,27.3,00.0,37.4,30.5,26.6,0000.0,0000.65,0000.53,0000.48
2023-05-14 09:12:00,,0840.1,4.99,0.00,29.0,27.3,00.0,37.4,30.5,26.6,0000.0,0000.66,0000.53,0000.47
2023-05-14 09:13:00,,0840.1,5.00,0.00,29.0,27.2,00.0,37.4,30.5,26.6,0000.0,0000.64,0000.52,0000.46
2023-05-14 09:14:00,,0840.1,5.00,0.00,28.9,27.2,00.0,37.4,30.5,26.6,0000.0,0000.65,0000.52,0000.45
2023-05-14 09:15:00,,0840.1,5.01,0.00,28.9,27.2,00.0,37.4,30.5,26.7,0000.0,0000.76,0000.51,0000.43
2023-05-14 09:16:00,,0840.1,5.01,0.00,28.9,27.2,00.0,37.4,30.5,26.7,0000.0,0000.83,0000.51,0000.42
2023-05-14 09:17:00,,0840.1,5.00,0.00,28.9,27.2,00.0,37.4,30.5,26.7,0000.0,0000.88,0000.52,0000.40
2023-05-14 09:18:00,,0840.1,5.00,0.00,28.9,27.2,00.0,37.4,30.5,26.7,0000.0,0000.89,0000.51,0000.38
2023-05-14 09:19:00,,0840.1,5.00,0.00,28.9,27.2,00.0,37.3,30.5,26.7,0000.0,0000.85,0000.49,0000.37
2023-05-14 09:20:00,,0840.1,5.00,0.00,28.9,27.1,00.0,37.3,30.5,26.6,0000.0,0000.82,0000.47,0000.35
2023-05-14 09:21:00,,0840.1,5.00,0.00,28.9,27.1,00.0,37.3,30.5,26.7,0000.0,0000.82,0000.46,0000.33
2023-05-14 09:22:00,,0840.1,5.01,0.00,28.9,27.1,00.0,37.3,30.4,26.6,0000.0,0000.80,0000.44,0000.32
2023-05-14 09:23:00,,0840.1,5.01,0.00,28.9,27.1,00.0,37.3,30.4,26.6,0000.0,0000.85,0000.44,0000.31
2023-05-14 09:24:00,,0840.1,4.99,0.00,28.9,27.1,00.0,37.3,30.4,26.7,0000.0,0000.94,0000.46,0000.30
2023-05-14 09:25:00,,0840.1,5.00,0.00,28.9,27.1,00.0,37.3,30.4,26.7,0000.0,0000.96,0000.46,0000.29
2023-05-14 09:26:00,,0840.1,5.00,0.00,28.9,27.1,00.0,37.3,30.4,26.7,0000.0,0000.80,0000.45,0000.28
2023-05-14 09:27:00,,0840.1,5.00,0.00,28.9,27.1,00.0,37.3,30.4,26.7,0000.0,0000.70,0000.41,0000.27
2023-05-14 09:28:00,,0840.1,5.01,0.00,28.9,27.2,00.0,37.3,30.4,26.7,0000.0,0000.72,0000.41,0000.26
2023-05-14 09:29:00,,0840.1,4.98,0.00,28.9,27.2,00.0,37.3,30.4,26.7,0000.0,0000.81,0000.44,0000.26
2023-05-14 09:30:00,,0840.1,5.01,0.00,28.9,27.2,00.0,37.3,30.4,26.7,0000.0,0000.86,0000.46,0000.25
2023-05-14 09:31:00,,0840.1,5.02,0.00,28.9,27.2,00.0,37.3,30.4,26.6,0000.0,0000.84,0000.45,0000.24
2023-05-14 09:32:00,,0840.1,4.99,0.00,28.9,27.2,00.0,37.3,30.4,26.7,0000.0,0000.86,0000.44,0000.24
2023-05-14 09:33:00,,0840.1,4.98,0.00,28.9,27.2,00.0,37.3,30.4,26.7,0000.0,0000.84,0000.43,0000.23
2023-05-14 09:34:00,,0840.1,5.01,0.00,28.9,27.2,00.0,37.3,30.4,26.7,0000.0,0000.84,0000.41,0000.22
2023-05-14 09:35:00,,0840.1,5.01,0.00,28.9,27.2,00.0,37.3,30.4,26.7,0000.0,0000.77,0000.39,0000.21
2023-05-14 09:36:00,,0840.1,5.00,0.00,28.8,27.2,00.0,37.3,30.4,26.7,0000.0,0000.77,0000.38,0000.21
2023-05-14 09:37:00,,0840.1,4.99,0.00,28.9,27.2,00.0,37.2,30.4,26.7,0000.0,0000.81,0000.40,0000.21
2023-05-14 09:38:00,,0840.1,5.01,0.00,28.9,27.2,00.0,37.2,30.4,26.7,0000.0,0000.92,0000.43,0000.22
2023-05-14 09:39:00,,0840.1,5.01,0.00,28.9,27.2,00.0,37.2,30.4,26.6,0000.0,0000.94,0000.43,0000.22
2023-05-14 09:40:00,,0840.1,5.01,0.00,28.9,27.3,00.0,37.2,30.4,26.6,0000.0,0000.91,0000.42,0000.22
2023-05-14 09:41:00,,0840.1,4.99,0.00,28.9,27.3,00.0,37.2,30.4,26.6,0000.0,0001.01,0000.44,0000.22
2023-05-14 09:42:00,,0840.1,4.99,0.00,28.9,27.3,00.0,37.2,30.4,26.6,0000.0,0001.11,0000.48,0000.23
2023-05-14 09:43:00,,0840.1,5.01,0.00,28.9,27.3,00.0,37.2,30.4,26.6,0000.0,0001.16,0000.50,0000.24
2023-05-14 09:44:00,,0840.1,5.01,0.00,28.9,27.3,00.0,37.2,30.4,26.6,0000.0,0001.14,0000.50,0000.24
2023-05-14 09:45:00,,0840.1,4.99,0.00,28.9,27.3,00.0,37.2,30.4,26.7,0000.0,0001.35,0000.51,0000.25
2023-05-14 09:46:00,,0840.1,4.99,0.00,28.9,27.3,00.0,37.2,30.4,26.6,0000.0,0001.52,0000.52,0000.25
2023-05-14 09:47:00,,0840.1,5.01,0.00,28.9,27.3,00.0,37.2,30.4,26.6,0000.0,0001.49,0000.51,0000.26
2023-05-14 09:48:00,,0840.1,5.01,0.00,28.8,27.3,00.0,37.2,30.4,26.6,0000.0,0001.53,0000.53,0000.26
2023-05-14 09:49:00,,0840.1,5.00,0.00,28.9,27.3,00.0,37.2,30.4,26.6,0000.0,0001.44,0000.50,0000.26
2023-05-14 09:50:00,,0840.1,4.99,0.00,28.9,27.3,00.0,37.2,30.4,26.6,0000.0,0001.39,0000.48,0000.26
2023-05-14 09:51:00,,0840.1,4.99,0.00,28.9,27.3,00.0,37.2,30.4,26.6,0000.0,0001.42,0000.48,0000.26
2023-05-14 09:52:00,,0840.1,5.01,0.00,28.9,27.3,00.0,37.2,30.4,26.6,0000.0,0001.29,0000.44,0000.26
2023-05-14 09:53:00,,0840.1,5.01,0.00,28.9,27.3,00.0,37.2,30.5,26.6,0000.0,0001.23,0000.42,0000.25
2023-05-14 09:54:00,,0840.1,5.00,0.00,28.9,27.3,00.0,37.2,30.5,26.6,0000.0,0001.22,0000.42,0000.25
2023-05-14 09:55:00,,0840.1,4.99,0.00,28.9,27.3,00.0,37.2,30.5,26.6,0000.0,0001.34,0000.47,0000.26
2023-05-14 09:56:00,,0840.2,5.00,0.00,28.9,27.3,00.0,37.2,30.5,26.6,0000.0,0001.25,0000.51,0000.26
2023-05-14 09:57:00,,0840.2,5.01,0.00,28.9,27.3,00.0,37.2,30.5,26.6,0000.0,0001.61,0000.53,0000.26
2023-05-14 09:58:00,,0840.1,4.98,0.00,28.9,27.3,00.0,37.2,30.5,26.6,0000.0,0001.73,0000.55,0000.26
2023-05-14 09:59:00,,0840.1,5.00,0.00,28.9,27.3,00.0,37.2,30.5,26.6,0000.0,0001.79,0000.56,0000.25
